Bangor, ME

7:38 PM EST on January 21, 2018 (GMT -0500)
Bangor International

Weather History for KBGR - March, 2013

Change the Weather History Date:

Monday, March 11, 2013

  Actual Average Record
Temperature  
Mean Temperature 37 °F 28 °F  
Max Temperature 42 °F 38 °F 65 °F (1977)
Min Temperature 32 °F 18 °F -12 °F (2005)
Degree Days  
Heating Degree Days 28 37  
Month to date heating degree days 338 422  
Since 1 July heating degree days 5715 6068  
Cooling Degree Days 0 0  
Month to date cooling degree days 0 0  
Year to date cooling degree days 0 0  
Moisture  
Dew Point 33 °F    
Average Humidity 85    
Maximum Humidity 100    
Minimum Humidity 70    
Precipitation  
Precipitation 0.00 in 0.10 in 1.38 in (1992)
Month to date precipitation 0.52 1.09  
Year to date precipitation 3.43 6.50  
Snow  
Snow 0.00 in 0.40 in 8.30 in (1971)
Month to date snowfall 3.9 5.0  
Since 1 July snowfall 63.4 55.7  
Snow Depth T in    
Sea Level Pressure  
Sea Level Pressure 30.21 in    
Wind  
Wind Speed 9 mph (South)    
Max Wind Speed 20 mph    
Max Gust Speed 25 mph    
Visibility 9 miles    
Events      
T = Trace of Precipitation, MM = Missing Value Source: NWS Daily Summary

Daily Weather History Graph

Daily Weather History Graph

Search for Another Location

Airport or City:

Trip Planner

Search our weather history database for the weather conditions in past years. The results will help you decide how hot, cold, wet, or windy it might be!

Date:

Astronomy

Mar. 11, 2013 Rise Set
Actual Time 6:54 AM EDT 6:36 PM EDT
Civil Twilight 6:25 AM EDT 7:05 PM EDT
Nautical Twilight 5:51 AM EDT 7:39 PM EDT
Astronomical Twilight 5:17 AM EDT 8:14 PM EDT
Moon 6:25 AM EDT (3/11) 6:47 PM EDT (3/11)
Length of Visible Light 12h 40m
Length of Day
11h 41m
Waning Crescent, 0% of the Moon is Illuminated
Mar 11
Waning Crescent
Mar 11
New
Mar 19
First Quarter
Mar 27
Full
Apr 3
Last Quarter

Hourly Weather History & Observations

Time (EDT) Temp. Windchill Dew Point Humidity Pressure Visibility Wind Dir Wind Speed Gust Speed Precip Events Conditions
12:53 AM 32.0 °F 25.6 °F 27.0 °F 82% 30.30 in 10.0 mi South 6.9 mph - N/A   Overcast
1:53 AM 32.0 °F 27.5 °F 28.0 °F 85% 30.30 in 10.0 mi South 4.6 mph - N/A   Overcast
2:53 AM 33.1 °F 24.9 °F 28.9 °F 85% 30.28 in 10.0 mi South 10.4 mph - N/A   Overcast
3:53 AM 34.0 °F 28.0 °F 30.0 °F 85% 30.26 in 10.0 mi SSW 6.9 mph - N/A   Overcast
4:53 AM 34.0 °F 27.2 °F 30.0 °F 85% 30.23 in 10.0 mi South 8.1 mph - N/A   Overcast
5:53 AM 34.0 °F 27.2 °F 30.9 °F 89% 30.23 in 10.0 mi South 8.1 mph - N/A   Overcast
6:53 AM 35.1 °F 29.3 °F 30.9 °F 85% 30.24 in 10.0 mi South 6.9 mph - N/A   Overcast
7:53 AM 36.0 °F - 32.0 °F 86% 30.26 in 10.0 mi Calm Calm - N/A   Overcast
8:53 AM 37.0 °F 34.5 °F 32.0 °F 82% 30.27 in 10.0 mi SSE 3.5 mph - N/A   Overcast
9:53 AM 37.9 °F 31.5 °F 33.1 °F 83% 30.24 in 10.0 mi South 9.2 mph - N/A   Overcast
10:53 AM 39.0 °F 32.3 °F 33.1 °F 79% 30.23 in 10.0 mi South 10.4 mph 21.9 mph N/A   Mostly Cloudy
11:36 AM 39.2 °F 30.8 °F 33.8 °F 81% 30.22 in 10.0 mi South 15.0 mph 21.9 mph N/A   Mostly Cloudy
11:53 AM 39.9 °F 32.1 °F 33.1 °F 77% 30.22 in 10.0 mi South 13.8 mph 20.7 mph N/A   Mostly Cloudy
12:43 PM 41.0 °F 33.5 °F 33.8 °F 76% 30.20 in 10.0 mi South 13.8 mph - N/A   Mostly Cloudy
12:53 PM 41.0 °F 33.5 °F 34.0 °F 76% 30.21 in 10.0 mi SSE 13.8 mph - N/A   Mostly Cloudy
1:16 PM 42.8 °F 35.4 °F 33.8 °F 70% 30.20 in 10.0 mi South 15.0 mph 20.7 mph N/A   Mostly Cloudy
1:53 PM 42.1 °F 34.5 °F 33.1 °F 70% 30.20 in 10.0 mi South 15.0 mph 21.9 mph N/A   Mostly Cloudy
2:53 PM 42.1 °F 34.5 °F 33.1 °F 70% 30.19 in 10.0 mi South 15.0 mph - N/A   Mostly Cloudy
3:53 PM 41.0 °F 32.5 °F 33.1 °F 73% 30.19 in 10.0 mi South 17.3 mph 23.0 mph N/A   Mostly Cloudy
4:53 PM 39.0 °F 29.6 °F 34.0 °F 82% 30.17 in 10.0 mi South 18.4 mph 23.0 mph N/A   Overcast
5:27 PM 37.4 °F 28.9 °F 33.8 °F 87% 30.16 in 10.0 mi South 13.8 mph 23.0 mph N/A   Overcast
5:53 PM 37.9 °F 30.5 °F 34.0 °F 86% 30.17 in 10.0 mi South 11.5 mph 20.7 mph N/A   Overcast
6:53 PM 37.9 °F 30.9 °F 34.0 °F 86% 30.18 in 10.0 mi South 10.4 mph - N/A   Overcast
7:34 PM 37.4 °F 30.8 °F 35.6 °F 93% 30.18 in 10.0 mi South 9.2 mph 18.4 mph N/A   Overcast
7:53 PM 37.9 °F 30.9 °F 35.1 °F 89% 30.18 in 10.0 mi South 10.4 mph 17.3 mph N/A   Overcast
8:53 PM 37.9 °F 32.1 °F 36.0 °F 93% 30.19 in 8.0 mi South 8.1 mph - N/A   Overcast
9:53 PM 37.9 °F 30.9 °F 37.0 °F 97% 30.18 in 7.0 mi South 10.4 mph - N/A   Overcast
10:53 PM 39.0 °F 32.8 °F 37.0 °F 93% 30.16 in 7.0 mi South 9.2 mph - N/A   Overcast
11:48 PM 39.2 °F 31.6 °F 37.4 °F 93% 30.15 in 4.0 mi South 12.7 mph 20.7 mph N/A   Overcast
11:53 PM 39.0 °F 31.4 °F 37.9 °F 96% 30.16 in 4.0 mi South 12.7 mph - N/A   Overcast